User: anonymous   Login
Location: Unspecified
(0.0000°N, 0.0000°E)
Time: 03:04:04
(UTC+00:00)
Language:

OFEQ 11 - Orbit

View from above orbital plane
View from above orbital plane
View from above satellite
View from above satellite

Ground track
Ground track

The orbit data is extracted from the following two-line orbital elements,

1 41759U 16056A   18111.09784779 0.00009000  00000-0  17350-3 0    08
2 41759 141.9502 334.0966 0066861 230.3997 129.5995 15.44379650    05
Epoch (UTC): 21 April 2018 02:20:54
Eccentricity: 0.0066861
inclination: 141.9502°
perigee height: 387 km
apogee height: 479 km
right ascension of ascending node: 334.0966°
argument of perigee: 230.3997°
revolutions per day: 15.44379650
mean anomaly at epoch: 129.5995°
orbit number at epoch: 0

The dashed part of the orbit path shows where the satellite is in the earth's shadow,  

DLR